Flag for Germany Weather past 2 weeks in Ennepetal, North Rhine-Westphalia, Germany

Now
55 °F

Passing clouds.


Feels Like: 53 °F
Forecast: 49 / 61 °F
Wind: 9 mph from Southwest

Location: Duesseldorf

Current Time: Jul 29, 2015 at 5:05:08 AM

Latest Report: Jul 29, 2015 at 4:00 AM


Visibility: 25 mi

Pressure: 29.78 "Hg

Humidity: 76%

Dew point: 48 °F

Location of EnnepetalLocation

Historic Weather in Ennepetal — Graph

°F

Ennepetal temperature yesterday

Maximum temperature yesterday: 64 °F (at 4:00 PM)
Minimum temperature yesterday: 55 °F (at 5:00 AM)
Average temperature yesterday: 60 °F

Past Weeks' High & Low Weather Summary

 TemperatureHumidityPressure
High90 °F (Jul 17, 4:00 PM)98% (Jul 16, 4:00 AM)30.12 "Hg (Jul 16, 4:00 AM)
Low51 °F (Jul 26, 4:00 AM)30% (Jul 17, 4:00 PM)29.50 "Hg (Jul 25, 7:00 AM)
Average67 °F70%29.90 "Hg
* Reported Jul 14 4:00 AM — Jul 29 4:00 AM, Ennepetal, Weather by CustomWeather, © 2015

Note: Actual official high and low records may vary slightly from our data, if they occured in-between our weather recording intervals... More about our weather records

Advertising

Ennepetal weather history for previous 24 hours

 ConditionsComfort  
Time TempWeatherWind HumidityBarometerVisibility
4:00 AM
Wed, Jul 29
55 °FPassing clouds.9 mph76%29.78 "Hg25 mi
3:00 AM55 °FPassing clouds.6 mph74%29.78 "Hg25 mi
2:00 AM56 °FPassing clouds.7 mph68%29.78 "Hg25 mi
1:00 AM54 °FPassing clouds.6 mph70%29.78 "Hg31 mi
11:00 PM
Tue, Jul 28
58 °FPassing clouds.7 mph64%29.78 "Hg31 mi
10:00 PM60 °FPassing clouds.6 mph54%29.76 "Hg28 mi
9:00 PM62 °FPartly sunny.7 mph55%29.75 "Hg28 mi
8:00 PM64 °FOvercast.8 mph54%29.75 "Hg31 mi
7:00 PM64 °FOvercast.8 mph56%29.74 "Hg31 mi
6:00 PM63 °FOvercast.8 mph61%29.74 "Hg31 mi
5:00 PM64 °FOvercast.8 mph59%29.74 "Hg31 mi
4:00 PM64 °FOvercast.10 mph60%29.75 "Hg28 mi
3:00 PM62 °FOvercast.12 mph66%29.74 "Hg25 mi
2:00 PM60 °FOvercast.8 mph79%29.74 "Hg22 mi
1:00 PM57 °FSprinkles. Overcast.12 mph89%29.74 "Hg5 mi
12:00 PM63 °FOvercast.13 mph63%29.72 "Hg25 mi
10:00 AM61 °FPartly sunny.9 mph73%29.70 "Hg19 mi
9:00 AM58 °FOvercast.8 mph77%29.70 "Hg14 mi
8:00 AM58 °FOvercast.9 mph74%29.68 "Hg19 mi
7:00 AM56 °FPartly sunny.7 mph75%29.67 "Hg12 mi
6:00 AM55 °FPassing clouds.7 mph77%29.67 "Hg28 mi
5:00 AM55 °FPassing clouds.8 mph79%29.66 "Hg31 mi
Weather by CustomWeather, © 2015

See weather overviewHow to use our weather pages